AAL3204 KPHX-KLAX

Flight info

Callsign AAL3204
Flight time 0h 53m
Altitude 28000
Route KEENS3 WLVRN ESTWD HLYWD1
Aircraft B738/M-SDE2E3FGHIRWXY/LB1

Departure

Time 2026-05-06 03:31
Airport Phoenix Sky Harbor International Airport (KPHX)

Arrival

Time 2026-05-06 04:24
Airport Los Angeles International Airport (KLAX)
Time Latitude Longitude Altitude Speed Heading
2026-05-06 03:13 33.43649 -112.00250 1116 ft 0 kts 90°
2026-05-06 03:23 33.43649 -112.00270 1114 ft 4 kts 96°
2026-05-06 03:24 33.43654 -112.00302 1116 ft 4 kts 107°
2026-05-06 03:24 33.43664 -112.00332 1114 ft 4 kts 121°
2026-05-06 03:24 33.43680 -112.00357 1118 ft 4 kts 140°
2026-05-06 03:24 33.43702 -112.00374 1121 ft 4 kts 162°
2026-05-06 03:25 33.43725 -112.00379 1113 ft 1 kts 180°
2026-05-06 03:27 33.43709 -112.00379 1119 ft 7 kts 180°
2026-05-06 03:27 33.43632 -112.00380 1121 ft 14 kts 180°
2026-05-06 03:28 33.43518 -112.00380 1119 ft 17 kts 180°
2026-05-06 03:28 33.43401 -112.00381 1120 ft 17 kts 179°
2026-05-06 03:28 33.43288 -112.00380 1114 ft 16 kts 180°
2026-05-06 03:28 33.43215 -112.00312 1119 ft 15 kts 94°
2026-05-06 03:29 33.43214 -112.00184 1120 ft 17 kts 90°
2026-05-06 03:29 33.43213 -112.00036 1123 ft 18 kts 90°
2026-05-06 03:29 33.43214 -111.99885 1119 ft 18 kts 90°
2026-05-06 03:29 33.43214 -111.99732 1124 ft 18 kts 90°
2026-05-06 03:30 33.43213 -111.99579 1124 ft 20 kts 90°
2026-05-06 03:30 33.43213 -111.99410 1126 ft 20 kts 90°
2026-05-06 03:30 33.43126 -111.99361 1131 ft 18 kts 220°
2026-05-06 03:30 33.43104 -111.99521 1131 ft 33 kts 270°
2026-05-06 03:31 33.43104 -112.00087 1131 ft 102 kts 270°
2026-05-06 03:31 33.43105 -112.01179 1156 ft 155 kts 270°
2026-05-06 03:31 33.43090 -112.02492 1754 ft 159 kts 268°
2026-05-06 03:31 33.43061 -112.03843 2425 ft 164 kts 266°
2026-05-06 03:32 33.43012 -112.05207 3139 ft 168 kts 268°
2026-05-06 03:32 33.42979 -112.06687 3482 ft 192 kts 268°
2026-05-06 03:32 33.42828 -112.08333 3719 ft 210 kts 250°
2026-05-06 03:32 33.42150 -112.09942 4136 ft 217 kts 244°
2026-05-06 03:33 33.41531 -112.11642 4473 ft 232 kts 250°
2026-05-06 03:33 33.40950 -112.13539 4647 ft 252 kts 250°
2026-05-06 03:33 33.40332 -112.15541 5245 ft 258 kts 250°
2026-05-06 03:33 33.39703 -112.17575 6017 ft 261 kts 251°
2026-05-06 03:34 33.39194 -112.19658 6859 ft 261 kts 266°
2026-05-06 03:34 33.39311 -112.21834 7510 ft 267 kts 279°
2026-05-06 03:34 33.39629 -112.24000 8289 ft 266 kts 281°
2026-05-06 03:34 33.39970 -112.26200 9021 ft 271 kts 282°
2026-05-06 03:35 33.40322 -112.28460 9642 ft 279 kts 282°
2026-05-06 03:35 33.40680 -112.30781 10220 ft 287 kts 281°
2026-05-06 03:35 33.41051 -112.33222 10442 ft 309 kts 281°
2026-05-06 03:35 33.41435 -112.35776 10842 ft 321 kts 280°
2026-05-06 03:36 33.41827 -112.38413 11598 ft 322 kts 279°
2026-05-06 03:36 33.42222 -112.41081 12199 ft 329 kts 279°
2026-05-06 03:36 33.42624 -112.43805 12890 ft 334 kts 279°
2026-05-06 03:36 33.43025 -112.46525 13632 ft 337 kts 278°
2026-05-06 03:37 33.43433 -112.49301 14307 ft 341 kts 278°
2026-05-06 03:37 33.43847 -112.52116 15043 ft 342 kts 279°
2026-05-06 03:37 33.44262 -112.54943 15734 ft 346 kts 279°
2026-05-06 03:37 33.44680 -112.57797 16439 ft 349 kts 279°
2026-05-06 03:38 33.45076 -112.60671 17156 ft 351 kts 276°
2026-05-06 03:38 33.45207 -112.63562 17847 ft 353 kts 270°
2026-05-06 03:38 33.45198 -112.66524 18488 ft 357 kts 269°
2026-05-06 03:38 33.45177 -112.69512 19106 ft 359 kts 269°
2026-05-06 03:39 33.45186 -112.72513 19748 ft 361 kts 270°
2026-05-06 03:39 33.45216 -112.75529 20360 ft 363 kts 270°
2026-05-06 03:39 33.45259 -112.78558 20967 ft 365 kts 272°
2026-05-06 03:39 33.45731 -112.81573 21456 ft 372 kts 289°
2026-05-06 03:40 33.46717 -112.84408 22052 ft 374 kts 291°
2026-05-06 03:40 33.47750 -112.87277 22639 ft 376 kts 292°
2026-05-06 03:40 33.48789 -112.90159 23184 ft 379 kts 291°
2026-05-06 03:40 33.49835 -112.93080 23681 ft 381 kts 291°
2026-05-06 03:41 33.50878 -112.96017 24153 ft 382 kts 290°
2026-05-06 03:41 33.51915 -112.98957 24652 ft 383 kts 290°
2026-05-06 03:41 33.52936 -113.01866 25127 ft 383 kts 289°
2026-05-06 03:41 33.53979 -113.04839 25424 ft 390 kts 290°
2026-05-06 03:42 33.55039 -113.07877 25675 ft 397 kts 290°
2026-05-06 03:42 33.56105 -113.10939 26189 ft 396 kts 290°
2026-05-06 03:42 33.57164 -113.13987 26685 ft 396 kts 289°
2026-05-06 03:42 33.58214 -113.17005 27139 ft 397 kts 289°
2026-05-06 03:43 33.59284 -113.20086 27574 ft 399 kts 289°
2026-05-06 03:43 33.60357 -113.23177 27899 ft 402 kts 288°
2026-05-06 03:43 33.61431 -113.26281 27887 ft 410 kts 289°
2026-05-06 03:43 33.62537 -113.29478 27902 ft 417 kts 289°
2026-05-06 03:44 33.63664 -113.32737 27910 ft 424 kts 289°
2026-05-06 03:44 33.64804 -113.36037 27906 ft 431 kts 289°
2026-05-06 03:44 33.65960 -113.39383 27905 ft 437 kts 289°
2026-05-06 03:44 33.67116 -113.42732 27906 ft 442 kts 289°
2026-05-06 03:45 33.68305 -113.46179 27972 ft 447 kts 289°
2026-05-06 03:45 33.69500 -113.49647 27975 ft 451 kts 289°
2026-05-06 03:45 33.70703 -113.53142 27966 ft 454 kts 289°
2026-05-06 03:45 33.71909 -113.56649 27966 ft 454 kts 289°
2026-05-06 03:46 33.73115 -113.60161 27953 ft 455 kts 289°
2026-05-06 03:46 33.74321 -113.63679 27955 ft 454 kts 289°
2026-05-06 03:46 33.75511 -113.67151 27901 ft 455 kts 289°
2026-05-06 03:46 33.76716 -113.70676 27891 ft 455 kts 289°
2026-05-06 03:47 33.77919 -113.74196 27906 ft 455 kts 289°
2026-05-06 03:47 33.79122 -113.77720 27884 ft 455 kts 289°
2026-05-06 03:47 33.80309 -113.81204 27892 ft 455 kts 289°
2026-05-06 03:47 33.81504 -113.84725 27897 ft 454 kts 289°
2026-05-06 03:48 33.82706 -113.88274 27898 ft 454 kts 289°
2026-05-06 03:48 33.83896 -113.91798 27903 ft 456 kts 290°
2026-05-06 03:48 33.85094 -113.95349 27902 ft 460 kts 290°
2026-05-06 03:48 33.86285 -113.98879 27905 ft 463 kts 290°
2026-05-06 03:49 33.87499 -114.02478 27900 ft 464 kts 290°
2026-05-06 03:49 33.88709 -114.06071 27896 ft 464 kts 290°
2026-05-06 03:49 33.89922 -114.09676 27882 ft 463 kts 290°
2026-05-06 03:49 33.91008 -114.13331 27881 ft 462 kts 284°
2026-05-06 03:50 33.91722 -114.17105 27896 ft 461 kts 280°
2026-05-06 03:50 33.92319 -114.20898 27885 ft 461 kts 279°
2026-05-06 03:50 33.92699 -114.23425 27888 ft 461 kts 279°
2026-05-06 03:50 33.93274 -114.27213 27891 ft 461 kts 279°
2026-05-06 03:51 33.93868 -114.31003 27890 ft 460 kts 280°
2026-05-06 03:51 33.94688 -114.36039 27885 ft 461 kts 280°
2026-05-06 03:51 33.95106 -114.38549 27881 ft 461 kts 280°
2026-05-06 03:51 33.95741 -114.42333 27874 ft 461 kts 281°
2026-05-06 03:52 33.96382 -114.46133 27893 ft 461 kts 281°
2026-05-06 03:52 33.97025 -114.49942 27881 ft 464 kts 281°
2026-05-06 03:52 33.97669 -114.53770 27902 ft 466 kts 281°
2026-05-06 03:52 33.98302 -114.57553 27891 ft 466 kts 281°
2026-05-06 03:53 33.98943 -114.61393 27878 ft 466 kts 281°
2026-05-06 03:53 33.99585 -114.65246 27874 ft 467 kts 281°
2026-05-06 03:53 34.00217 -114.69046 27890 ft 467 kts 281°
2026-05-06 03:53 34.00862 -114.72940 27881 ft 468 kts 281°
2026-05-06 03:54 34.01493 -114.76749 27886 ft 468 kts 281°
2026-05-06 03:54 34.02129 -114.80605 27884 ft 469 kts 281°
2026-05-06 03:54 34.02766 -114.84465 27881 ft 468 kts 281°
2026-05-06 03:54 34.03401 -114.88327 27870 ft 469 kts 281°
2026-05-06 03:55 34.04035 -114.92191 27880 ft 468 kts 281°
2026-05-06 03:55 34.04657 -114.95982 27882 ft 467 kts 281°
2026-05-06 03:55 34.05286 -114.99830 27872 ft 467 kts 281°
2026-05-06 03:55 34.05916 -115.03691 27871 ft 468 kts 281°
2026-05-06 03:56 34.06546 -115.07552 27880 ft 468 kts 281°
2026-05-06 03:56 34.07177 -115.11429 27860 ft 473 kts 282°
2026-05-06 03:56 34.07806 -115.15298 27869 ft 478 kts 282°
2026-05-06 03:56 34.08449 -115.19261 27874 ft 482 kts 282°
2026-05-06 03:57 34.09095 -115.23253 27877 ft 486 kts 282°
2026-05-06 03:57 34.09741 -115.27259 27865 ft 487 kts 282°
2026-05-06 03:57 34.10386 -115.31269 27859 ft 486 kts 282°
2026-05-06 03:57 34.11031 -115.35287 27852 ft 486 kts 282°
2026-05-06 03:58 34.11670 -115.39270 27858 ft 486 kts 282°
2026-05-06 03:58 34.12311 -115.43279 27855 ft 486 kts 282°
2026-05-06 03:58 34.12946 -115.47256 27856 ft 486 kts 282°
2026-05-06 03:58 34.13584 -115.51262 27855 ft 486 kts 282°
2026-05-06 03:59 34.14223 -115.55286 27854 ft 486 kts 282°
2026-05-06 03:59 34.14859 -115.59291 27855 ft 485 kts 282°
2026-05-06 03:59 34.15494 -115.63302 27857 ft 485 kts 282°
2026-05-06 03:59 34.16122 -115.67307 27852 ft 486 kts 281°
2026-05-06 04:00 34.16341 -115.71379 27839 ft 489 kts 266°
2026-05-06 04:00 34.15913 -115.75415 27867 ft 491 kts 264°
2026-05-06 04:00 34.15436 -115.79517 27894 ft 495 kts 264°
2026-05-06 04:00 34.14981 -115.83650 27908 ft 499 kts 264°
2026-05-06 04:01 34.14555 -115.87821 27921 ft 500 kts 265°
2026-05-06 04:01 34.14150 -115.91992 27948 ft 500 kts 265°
2026-05-06 04:01 34.13749 -115.96160 27932 ft 500 kts 265°
2026-05-06 04:01 34.13346 -116.00312 27965 ft 502 kts 265°
2026-05-06 04:02 34.12936 -116.04510 27986 ft 504 kts 265°
2026-05-06 04:02 34.12523 -116.08713 27999 ft 505 kts 265°
2026-05-06 04:02 34.12108 -116.12925 27999 ft 506 kts 265°
2026-05-06 04:02 34.11690 -116.17145 27995 ft 507 kts 265°
2026-05-06 04:03 34.11271 -116.21370 27989 ft 507 kts 265°
2026-05-06 04:03 34.10856 -116.25549 27903 ft 505 kts 265°
2026-05-06 04:03 34.10437 -116.29741 26931 ft 505 kts 265°
2026-05-06 04:03 34.10003 -116.33963 25845 ft 505 kts 265°
2026-05-06 04:04 34.09555 -116.38141 25230 ft 496 kts 264°
2026-05-06 04:04 34.09113 -116.42200 24801 ft 484 kts 264°
2026-05-06 04:04 34.08684 -116.46144 24647 ft 466 kts 264°
2026-05-06 04:04 34.08269 -116.49978 24446 ft 451 kts 264°
2026-05-06 04:05 34.07871 -116.53677 24271 ft 438 kts 265°
2026-05-06 04:05 34.07483 -116.57264 24092 ft 425 kts 264°
2026-05-06 04:05 34.07118 -116.60724 23792 ft 417 kts 265°
2026-05-06 04:05 34.06790 -116.64180 23400 ft 412 kts 266°
2026-05-06 04:06 34.06481 -116.67609 22908 ft 408 kts 266°
2026-05-06 04:06 34.06176 -116.70998 22462 ft 404 kts 265°
2026-05-06 04:06 34.05871 -116.74343 22016 ft 399 kts 266°
2026-05-06 04:06 34.05564 -116.77661 21574 ft 395 kts 265°
2026-05-06 04:07 34.05258 -116.80943 21174 ft 390 kts 265°
2026-05-06 04:07 34.04958 -116.84135 20717 ft 386 kts 265°
2026-05-06 04:07 34.04656 -116.87342 20320 ft 382 kts 265°
2026-05-06 04:07 34.04337 -116.90518 19897 ft 379 kts 264°
2026-05-06 04:08 34.03933 -116.93645 19482 ft 376 kts 262°
2026-05-06 04:08 34.03507 -116.96751 19072 ft 373 kts 263°
2026-05-06 04:08 34.03095 -116.99818 18682 ft 370 kts 263°
2026-05-06 04:08 34.02693 -117.02877 18203 ft 369 kts 263°
2026-05-06 04:09 34.02320 -117.05882 17738 ft 366 kts 264°
2026-05-06 04:09 34.01965 -117.08908 17303 ft 363 kts 264°
2026-05-06 04:09 34.01615 -117.11920 16878 ft 360 kts 264°
2026-05-06 04:09 34.01265 -117.14907 16462 ft 357 kts 263°
2026-05-06 04:10 34.00919 -117.17838 16063 ft 355 kts 264°
2026-05-06 04:10 34.00569 -117.20775 15710 ft 353 kts 263°
2026-05-06 04:10 34.00219 -117.23699 15305 ft 351 kts 263°
2026-05-06 04:10 33.99871 -117.26605 14912 ft 349 kts 263°
2026-05-06 04:11 33.99523 -117.29495 14509 ft 347 kts 264°
2026-05-06 04:11 33.99180 -117.32370 14097 ft 346 kts 264°
2026-05-06 04:11 33.98843 -117.35241 13679 ft 344 kts 264°
2026-05-06 04:11 33.98512 -117.38070 13238 ft 343 kts 264°
2026-05-06 04:12 33.98179 -117.40911 12819 ft 341 kts 264°
2026-05-06 04:12 33.97845 -117.43745 12412 ft 339 kts 264°
2026-05-06 04:12 33.97514 -117.46536 12208 ft 331 kts 263°
2026-05-06 04:12 33.97294 -117.49261 11993 ft 322 kts 276°
2026-05-06 04:13 33.97687 -117.51849 11656 ft 317 kts 285°
2026-05-06 04:13 33.98186 -117.54436 11307 ft 316 kts 285°
2026-05-06 04:13 33.98672 -117.57012 10957 ft 314 kts 285°
2026-05-06 04:13 33.99144 -117.59589 10608 ft 313 kts 284°
2026-05-06 04:14 33.99598 -117.62127 10344 ft 310 kts 284°
2026-05-06 04:14 34.00041 -117.64634 10208 ft 301 kts 284°
2026-05-06 04:14 34.00472 -117.67080 10072 ft 293 kts 284°
2026-05-06 04:14 34.00669 -117.69521 9755 ft 295 kts 266°
2026-05-06 04:15 34.00405 -117.71951 9447 ft 297 kts 263°
2026-05-06 04:15 34.00128 -117.74424 9074 ft 297 kts 264°
2026-05-06 04:15 33.99861 -117.76892 8754 ft 296 kts 264°
2026-05-06 04:15 33.99611 -117.79344 8454 ft 293 kts 264°
2026-05-06 04:16 33.99370 -117.81778 8158 ft 291 kts 264°
2026-05-06 04:16 33.99134 -117.84197 7855 ft 289 kts 265°
2026-05-06 04:16 33.98904 -117.86567 7566 ft 286 kts 265°
2026-05-06 04:16 33.98673 -117.88944 7281 ft 284 kts 264°
2026-05-06 04:17 33.98443 -117.91296 6980 ft 282 kts 265°
2026-05-06 04:17 33.98213 -117.93637 6693 ft 279 kts 264°
2026-05-06 04:17 33.97990 -117.95956 6415 ft 277 kts 265°
2026-05-06 04:17 33.97832 -117.98254 6111 ft 274 kts 266°
2026-05-06 04:18 33.97666 -118.00511 6008 ft 265 kts 265°
2026-05-06 04:18 33.97464 -118.02653 5862 ft 259 kts 264°
2026-05-06 04:18 33.97240 -118.04804 5529 ft 259 kts 263°
2026-05-06 04:18 33.97013 -118.06935 5203 ft 252 kts 263°
2026-05-06 04:19 33.96796 -118.08976 4876 ft 238 kts 263°
2026-05-06 04:19 33.96592 -118.10899 4563 ft 225 kts 263°
2026-05-06 04:19 33.96398 -118.12740 4271 ft 219 kts 263°
2026-05-06 04:19 33.96211 -118.14520 3982 ft 217 kts 263°
2026-05-06 04:20 33.96022 -118.16324 3692 ft 218 kts 263°
2026-05-06 04:20 33.95834 -118.18116 3421 ft 213 kts 263°
2026-05-06 04:20 33.95650 -118.19865 3138 ft 206 kts 262°
2026-05-06 04:20 33.95475 -118.21541 2856 ft 196 kts 262°
2026-05-06 04:21 33.95311 -118.23110 2615 ft 181 kts 263°
2026-05-06 04:21 33.95158 -118.24575 2370 ft 172 kts 263°
2026-05-06 04:21 33.95007 -118.26026 2166 ft 177 kts 263°
2026-05-06 04:21 33.94852 -118.27515 1910 ft 179 kts 262°
2026-05-06 04:22 33.94700 -118.28974 1674 ft 169 kts 262°
2026-05-06 04:22 33.94561 -118.30311 1460 ft 155 kts 262°
2026-05-06 04:22 33.94431 -118.31574 1241 ft 150 kts 263°
2026-05-06 04:23 33.94171 -118.34044 780 ft 151 kts 261°
2026-05-06 04:23 33.94047 -118.35281 593 ft 149 kts 261°
2026-05-06 04:23 33.93916 -118.36532 390 ft 154 kts 263°
2026-05-06 04:23 33.93789 -118.37816 236 ft 154 kts 259°
2026-05-06 04:24 33.93651 -118.39054 95 ft 140 kts 265°
2026-05-06 04:24 33.93562 -118.39974 95 ft 79 kts 263°
2026-05-06 04:24 33.93536 -118.40373 93 ft 23 kts 272°
2026-05-06 04:24 33.93566 -118.40552 95 ft 18 kts 292°
2026-05-06 04:25 33.93597 -118.40669 93 ft 9 kts 276°
2026-05-06 04:25 33.93594 -118.40742 94 ft 9 kts 265°
2026-05-06 04:25 33.93599 -118.40814 94 ft 8 kts 285°
2026-05-06 04:25 33.93624 -118.40876 94 ft 8 kts 314°
2026-05-06 04:26 33.93676 -118.40898 95 ft 8 kts 350°
2026-05-06 04:26 33.93730 -118.40907 95 ft 8 kts 353°
2026-05-06 04:26 33.93783 -118.40915 94 ft 8 kts 354°
2026-05-06 04:26 33.93834 -118.40922 92 ft 7 kts 354°
2026-05-06 04:27 33.93871 -118.40893 93 ft 7 kts 78°
2026-05-06 04:27 33.93878 -118.40835 92 ft 7 kts 70°
2026-05-06 04:27 33.93919 -118.40811 92 ft 7 kts
2026-05-06 04:27 33.93966 -118.40817 94 ft 7 kts 352°
2026-05-06 04:28 33.94012 -118.40824 92 ft 7 kts 353°
2026-05-06 04:28 33.94057 -118.40831 90 ft 6 kts 353°
2026-05-06 04:28 33.94101 -118.40837 93 ft 6 kts 353°
2026-05-06 04:28 33.94144 -118.40843 93 ft 6 kts 353°
2026-05-06 04:29 33.94187 -118.40850 92 ft 6 kts 345°
2026-05-06 04:29 33.94218 -118.40882 93 ft 6 kts 288°
2026-05-06 04:29 33.94212 -118.40923 95 ft 4 kts 262°
2026-05-06 04:29 33.94211 -118.40934 94 ft 0 kts 264°
2026-05-06 04:30 33.94210 -118.40937 93 ft 0 kts 265°